Terminal Aerodrome Forecast
Issued by NWS Grand Forks, ND

Home | Current Version | Previous Version | Text Only | Print | Product List | Glossary Off
Versions: 1 2 3 4 5 6 7 8 9 10 11 12 13 14 15 16 17 18 19 20 21

000
FTUS43 KFGF 301900 AAA
TAFGFK
TAF AMD
KGFK 301922Z 3019/0118 18022G32KT P6SM SCT200
     FM010200 31013KT P6SM -SHRA OVC050
     FM010700 27004KT P6SM FEW250=

USA.gov is the U.S. government's official web portal to all federal, state and local government web resources and services.